Location: ?????
(37.7324°N, 23.9257°E)
Time: 20:33:26
(UTC+00:00)

ATLAS 5 CENTAUR R/B - Pass Details

Date: 29 November 2020
Orbit: 520 x 1138 km, 63.4° (Epoch: 02 January)

Event Time Altitude Azimuth Distance (km) Brightness Sun altitude
Rises 04:41:26 0° 208° (SSW) 2,629 4.7 -7.6°
Reaches altitude 10° 04:43:33 10° 206° (SSW) 1,756 3.9 -7.2°
Maximum altitude 04:47:24 77° 120° (ESE) 566 1.5 -6.5°
Drops below altitude 10° 04:51:39 10° 35° (NE) 1,927 4.3 -5.8°
Sets 04:54:03 0° 34° (NE) 2,913 5.2 -5.3°
